SIRIUS 2

导读 | 星芒AI

SIRIUS 2 是一颗由加拿大公司 Exact Earth 运营的地球观测卫星,主要用于船舶自动识别系统(AIS)数据的收集,以提升海上交通监控能力。该卫星于2014年发射,运行在低地球轨道,能够实时追踪全球范围内的船舶活动,为航运管理、海洋研究和安全监测提供关键数据。SIRIUS 2 是 Exact Earth 卫星星座的重要组成部分,支持全球海上交通的透明度和效率。

基本信息
目录编号:
26483
目录名称:
SIRIUS 2
国际标识:
2000-051A
轨道中心:
EARTH
卫星名称:
SIRIUS 2
卫星全名:
--
卫星状态:
在轨 (已飞行9232 天)
发射日期:
2000-09-05 UTC
国别 :
美国 (US)
星等 :
--
轨道信息
数据来源 国际轨道数据
星历时间: 2025-12-12T18:50:41+0800
3天前
查看轨道信息
半长轴: 30253.653km
偏心率: 0.0205903
轨道倾角: 66.959°
近地点辐角 247.178°
升交点赤经 46.433°
平近点角 110.334°
近地点: 23252.586km
远地点: 24498.45km
周期: 872.824分钟
每日圈数: 1.649818
详细信息
使用方式:
暂无
2D轨道图
3D轨道图
轨道高度分析图
轨道倾角分析图
轨道综合分析图
查看轨道综合分析图